Newport, RI

6:12 PM EDT on July 26, 2017 (GMT -0400)
Newport State

Weather History for KUUU - March, 2014

Change the Weather History Date:

Monday, March 31, 2014

  Actual Average Record
Temperature  
Mean Temperature 36 °F -  
Max Temperature 39 °F 50 °F 71 °F (1981)
Min Temperature 34 °F 36 °F 21 °F (1991)
Degree Days  
Heating Degree Days 28    
Moisture  
Dew Point 32 °F    
Average Humidity 85    
Maximum Humidity 89    
Minimum Humidity 70    
Precipitation  
Precipitation 0.09 in - - ()
Sea Level Pressure  
Sea Level Pressure 29.79 in    
Wind  
Wind Speed 18 mph (North)    
Max Wind Speed 24 mph    
Max Gust Speed 37 mph    
Visibility 8 miles    
Events Rain , Snow    
Averages and records for this station are not official NWS values.
T = Trace of Precipitation, MM = Missing Value Source: NWS Daily Summary

Daily Weather History Graph

Daily Weather History Graph

Search for Another Location

Airport or City:

Trip Planner

Search our weather history database for the weather conditions in past years. The results will help you decide how hot, cold, wet, or windy it might be!

Date:

Astronomy

Mar. 31, 2014 Rise Set
Actual Time 6:29 AM EDT 7:09 PM EDT
Civil Twilight 6:01 AM EDT 7:37 PM EDT
Nautical Twilight 5:28 AM EDT 8:10 PM EDT
Astronomical Twilight 4:54 AM EDT 8:44 PM EDT
Moon 6:50 AM EDT (3/31) 8:25 PM EDT (3/31)
Length of Visible Light 13h 35m
Length of Day
12h 39m
New Moon, 1% of the Moon is Illuminated
Mar 31
New Moon
Apr 7
First Quarter
Apr 15
Full
Apr 22
Last Quarter
Apr 29
New

Hourly Weather History & Observations

Time (EDT) Temp. Windchill Dew Point Humidity Pressure Visibility Wind Dir Wind Speed Gust Speed Precip Events Conditions
12:03 AM 36.0 °F 24.7 °F 33.1 °F 89% 29.64 in 3.0 mi NNE 21.9 mph 33.4 mph 0.00 in Snow Light Snow
12:36 AM 36.0 °F 24.4 °F 33.1 °F 89% 29.64 in 10.0 mi North 23.0 mph 29.9 mph 0.01 in   Overcast
12:53 AM 36.0 °F 24.2 °F 33.1 °F 89% 29.64 in 9.0 mi North 24.2 mph 36.8 mph 0.01 in   Overcast
1:53 AM 36.0 °F 25.0 °F 32.0 °F 86% 29.65 in 10.0 mi North 20.7 mph 32.2 mph 0.01 in   Overcast
2:53 AM 36.0 °F 25.3 °F 32.0 °F 86% 29.65 in 10.0 mi North 19.6 mph 28.8 mph N/A   Overcast
3:53 AM 35.1 °F 24.8 °F 32.0 °F 89% 29.66 in 10.0 mi North 17.3 mph 24.2 mph N/A   Overcast
4:53 AM 35.1 °F 24.5 °F 30.9 °F 85% 29.66 in 7.0 mi North 18.4 mph 26.5 mph 0.00 in   Overcast
5:17 AM 35.1 °F 25.2 °F 30.9 °F 85% 29.67 in 6.0 mi North 16.1 mph 24.2 mph 0.00 in   Overcast
5:35 AM 35.1 °F 24.8 °F 30.9 °F 85% 29.67 in 8.0 mi North 17.3 mph 25.3 mph 0.00 in Rain Light Rain
5:53 AM 35.1 °F 24.1 °F 30.9 °F 85% 29.68 in 10.0 mi North 19.6 mph 27.6 mph 0.00 in   Overcast
6:53 AM 34.0 °F 23.0 °F 30.9 °F 89% 29.71 in 5.0 mi North 18.4 mph 27.6 mph 0.00 in   Overcast
7:15 AM 34.0 °F 24.6 °F 30.9 °F 89% 29.72 in 5.0 mi North 13.8 mph 26.5 mph 0.00 in   Overcast
7:28 AM 34.0 °F 24.6 °F 30.9 °F 89% 29.73 in 5.0 mi North 13.8 mph 23.0 mph 0.00 in   Overcast
7:35 AM 34.0 °F 23.0 °F 30.9 °F 89% 29.73 in 9.0 mi North 18.4 mph 24.2 mph 0.00 in   Overcast
7:42 AM 34.0 °F 24.2 °F 30.9 °F 89% 29.74 in 6.0 mi North 15.0 mph 26.5 mph 0.00 in   Overcast
7:53 AM 34.0 °F 23.4 °F 30.9 °F 89% 29.74 in 5.0 mi North 17.3 mph - 0.00 in Snow Light Snow
8:53 AM 35.1 °F 26.4 °F 32.0 °F 89% 29.76 in 7.0 mi North 12.7 mph 24.2 mph 0.00 in   Overcast
9:53 AM 36.0 °F 26.7 °F 30.0 °F 79% 29.78 in 10.0 mi North 15.0 mph 29.9 mph N/A   Overcast
10:16 AM 36.0 °F 25.3 °F 30.9 °F 82% 29.78 in 10.0 mi North 19.6 mph 27.6 mph 0.00 in   Overcast
10:41 AM 36.0 °F 26.7 °F 32.0 °F 86% 29.79 in 2.5 mi North 15.0 mph 25.3 mph 0.00 in   Overcast
10:46 AM 36.0 °F 26.3 °F 32.0 °F 86% 29.79 in 4.0 mi North 16.1 mph 21.9 mph 0.00 in Rain Light Rain
10:53 AM 36.0 °F 26.7 °F 32.0 °F 86% 29.79 in 7.0 mi North 15.0 mph 21.9 mph 0.00 in Rain Light Rain
11:13 AM 37.9 °F 28.2 °F 33.1 °F 83% 29.79 in 9.0 mi North 18.4 mph 32.2 mph 0.00 in   Overcast
11:23 AM 37.0 °F 27.4 °F 32.0 °F 82% 29.79 in 10.0 mi North 17.3 mph 25.3 mph 0.00 in Rain Light Rain
11:53 AM 39.0 °F 30.3 °F 33.1 °F 79% 29.79 in 10.0 mi North 16.1 mph 24.2 mph 0.00 in   Overcast
12:41 PM 37.9 °F 27.6 °F 32.0 °F 79% 29.80 in 10.0 mi North 20.7 mph 27.6 mph 0.00 in   Overcast
12:53 PM 37.9 °F 27.3 °F 30.0 °F 73% 29.80 in 10.0 mi NNE 21.9 mph 32.2 mph 0.00 in   Overcast
1:53 PM 35.1 °F 25.2 °F 30.9 °F 85% 29.82 in 3.0 mi North 16.1 mph - 0.00 in Snow Light Snow
2:00 PM 35.1 °F 25.5 °F 30.9 °F 85% 29.82 in 2.0 mi North 15.0 mph - 0.01 in Rain Light Rain
2:09 PM 35.1 °F 25.9 °F 32.0 °F 89% 29.82 in 6.0 mi North 13.8 mph - 0.02 in Rain Light Rain
2:53 PM 35.1 °F 26.4 °F 32.0 °F 89% 29.84 in 6.0 mi North 12.7 mph - 0.04 in Rain Light Rain
3:14 PM 36.0 °F 28.0 °F 33.1 °F 89% 29.84 in 10.0 mi North 11.5 mph 21.9 mph 0.00 in   Overcast
3:25 PM 36.0 °F 26.3 °F 33.1 °F 89% 29.84 in 8.0 mi North 16.1 mph 20.7 mph 0.00 in   Overcast
3:53 PM 36.0 °F 28.0 °F 33.1 °F 89% 29.85 in 3.0 mi NNW 11.5 mph - 0.01 in Snow Light Snow
4:30 PM 36.0 °F 29.0 °F 33.1 °F 89% 29.85 in 4.0 mi North 9.2 mph - 0.02 in Rain Rain
4:53 PM 37.0 °F 29.8 °F 34.0 °F 89% 29.86 in 10.0 mi North 10.4 mph - 0.02 in   Overcast
5:53 PM 37.9 °F 33.5 °F 35.1 °F 89% 29.89 in 10.0 mi NNW 5.8 mph - N/A   Overcast
6:53 PM 37.9 °F 30.9 °F 32.0 °F 79% 29.91 in 10.0 mi North 10.4 mph 19.6 mph 0.00 in   Overcast
7:53 PM 37.9 °F 30.9 °F 34.0 °F 86% 29.94 in 10.0 mi NNE 10.4 mph - N/A   Overcast
8:53 PM 37.9 °F 33.5 °F 34.0 °F 86% 29.95 in 10.0 mi NNW 5.8 mph - N/A   Overcast
9:38 PM 39.0 °F 31.8 °F 30.9 °F 73% 29.95 in 10.0 mi NNW 11.5 mph 19.6 mph N/A   Overcast
9:53 PM 39.0 °F 30.6 °F 30.0 °F 70% 29.95 in 10.0 mi NNW 15.0 mph 25.3 mph N/A   Overcast
10:53 PM 37.9 °F 30.0 °F 28.9 °F 70% 29.96 in 10.0 mi NNW 12.7 mph 21.9 mph N/A   Overcast
11:53 PM 37.9 °F 30.5 °F 28.9 °F 70% 29.97 in 10.0 mi North 11.5 mph 21.9 mph N/A   Overcast